TimeEST,TemperatureF,Dew PointF,Humidity,Sea Level PressureIn,VisibilityMPH,Wind Direction,Wind SpeedMPH,Gust SpeedMPH,PrecipitationIn,Events,Conditions,WindDirDegrees,DateUTC
12:54 AM,36.0,28.0,73,29.91,-9999.0,West,5.8,-,N/A,,Unknown,260,2013-02-13 05:54:00
1:54 AM,36.0,28.0,73,29.92,-9999.0,West,5.8,-,N/A,,Unknown,260,2013-02-13 06:54:00
3:54 AM,33.1,27.0,78,29.92,-9999.0,Calm,Calm,-,N/A,,Unknown,0,2013-02-13 08:54:00
4:54 AM,34.0,28.0,79,29.90,-9999.0,West,4.6,-,N/A,,Unknown,280,2013-02-13 09:54:00
5:54 AM,35.1,25.0,67,29.89,-9999.0,NW,9.2,-,N/A,,Unknown,320,2013-02-13 10:54:00
6:54 AM,35.1,21.9,59,29.91,-9999.0,WNW,5.8,-,N/A,,Unknown,300,2013-02-13 11:54:00
7:54 AM,36.0,21.9,57,29.92,-9999.0,WNW,5.8,-,N/A,,Unknown,300,2013-02-13 12:54:00
8:54 AM,37.0,23.0,57,29.91,-9999.0,WNW,5.8,-,N/A,,Unknown,300,2013-02-13 13:54:00
9:54 AM,37.9,23.0,55,29.89,-9999.0,Variable,4.6,-,N/A,,Unknown,0,2013-02-13 14:54:00
10:54 AM,37.9,21.9,53,29.88,-9999.0,Calm,Calm,-,N/A,,Unknown,0,2013-02-13 15:54:00
11:54 AM,39.9,23.0,51,29.89,-9999.0,West,6.9,-,N/A,,Unknown,270,2013-02-13 16:54:00
12:54 PM,39.9,23.0,51,29.86,-9999.0,Variable,3.5,-,N/A,,Unknown,0,2013-02-13 17:54:00
1:54 PM,39.9,21.9,49,29.83,-9999.0,NNW,6.9,-,N/A,,Unknown,330,2013-02-13 18:54:00
2:54 PM,39.9,21.9,49,29.79,-9999.0,Variable,4.6,-,N/A,,Unknown,0,2013-02-13 19:54:00
3:54 PM,37.9,24.1,57,29.79,-9999.0,South,3.5,-,N/A,,Unknown,190,2013-02-13 20:54:00
4:54 PM,37.0,25.0,62,29.77,-9999.0,Calm,Calm,-,N/A,,Unknown,0,2013-02-13 21:54:00
5:54 PM,33.1,24.1,70,29.75,-9999.0,Calm,Calm,-,N/A,,Unknown,0,2013-02-13 22:54:00
6:54 PM,33.1,25.0,72,29.74,-9999.0,Calm,Calm,-,N/A,,Unknown,0,2013-02-13 23:54:00
7:54 PM,34.0,26.1,73,29.73,-9999.0,Calm,Calm,-,N/A,,Unknown,0,2013-02-14 00:54:00
8:54 PM,35.1,26.1,70,29.73,-9999.0,Calm,Calm,-,N/A,,Unknown,0,2013-02-14 01:54:00
9:54 PM,37.0,28.0,70,29.70,-9999.0,NE,3.5,-,N/A,,Unknown,40,2013-02-14 02:54:00
10:54 PM,37.9,28.0,68,29.67,-9999.0,NNE,4.6,-,N/A,,Unknown,30,2013-02-14 03:54:00
11:54 PM,37.9,28.9,70,29.72,-9999.0,North,4.6,-,N/A,,Unknown,360,2013-02-14 04:54:00